Weather History for Albuquerque, NM

Change the Weather History Date:

Friday, May 23, 2014

  Actual Average Record
Temperature  
Mean Temperature 64 °F 68 °F  
Max Temperature 74 °F 81 °F 97 °F (2000)
Min Temperature 54 °F 55 °F 36 °F (1975)
Degree Days  
Heating Degree Days 1 1  
Month to date heating degree days 95 64  
Since 1 July heating degree days 3962 4168  
Cooling Degree Days 0 4  
Month to date cooling degree days 52 51  
Year to date cooling degree days 58 58  
Growing Degree Days 14 (Base 50)    
Moisture  
Dew Point 46 °F    
Average Humidity 56    
Maximum Humidity 77    
Minimum Humidity 34    
Precipitation  
Precipitation 0.22 in 0.02 in 0.76 in (1937)
Month to date precipitation 0.27 0.37  
Year to date precipitation 0.68 2.41  
Snow  
Snow 0.00 in - - ()
Month to date snowfall 0.0  
Since 1 July snowfall 6.6  
Snow Depth 0.00 in    
Sea Level Pressure  
Sea Level Pressure 29.96 in    
Wind  
Wind Speed 13 mph (ENE)    
Max Wind Speed 40 mph    
Max Gust Speed 60 mph    
Visibility 10 miles    
Events Rain , Thunderstorm    
T = Trace of Precipitation, MM = Missing Value Source: NWS Daily Summary

Daily Weather History Graph

Daily Weather History Graph

Search for Another Location

Airport:

Trip Planner

Search our weather history database for the weather conditions in past years. The results will help you decide how hot, cold, wet, or windy it might be!

Date:

Astronomy

May. 23, 2014 Rise Set
Actual Time 5:57 AM MDT 8:09 PM MDT
Civil Twilight 5:28 AM MDT 8:38 PM MDT
Nautical Twilight 4:53 AM MDT 9:13 PM MDT
Astronomical Twilight 4:15 AM MDT 9:51 PM MDT
Moon 2:41 AM MDT 3:16 PM MDT
Length of Visible Light 15h 09m
Length of Day
14h 11m
Waning Crescent, 26% of the Moon is Illuminated
May 23
Waning Crescent
May 28
New
Jun 5
First Quarter
Jun 12
Full
Jun 19
Last Quarter

Hourly Weather History & Observations

Time (MDT) Temp. Dew Point Humidity Pressure Visibility Wind Dir Wind Speed Gust Speed Precip Events Conditions
12:52 AM 62.1 °F 46.9 °F 58% 29.95 in 10.0 mi East 15.0 mph - N/A   Mostly Cloudy
1:52 AM 59.0 °F 45.0 °F 60% 29.97 in 10.0 mi West 9.2 mph - 0.01 in Rain Light Rain
2:52 AM 59.0 °F 48.0 °F 67% 29.96 in 10.0 mi East 9.2 mph - 0.00 in   Overcast
3:52 AM 57.0 °F 46.9 °F 69% 29.94 in 10.0 mi ENE 11.5 mph - 0.00 in   Scattered Clouds
4:52 AM 57.0 °F 48.0 °F 72% 29.93 in 10.0 mi ENE 6.9 mph - N/A   Scattered Clouds
5:52 AM 55.0 °F 46.9 °F 74% 29.94 in 10.0 mi Calm Calm - N/A   Scattered Clouds
6:52 AM 57.0 °F 46.9 °F 69% 29.94 in 10.0 mi East 17.3 mph - N/A   Scattered Clouds
7:52 AM 60.1 °F 46.9 °F 62% 29.94 in 10.0 mi ESE 17.3 mph - N/A   Mostly Cloudy
8:52 AM 63.0 °F 46.0 °F 54% 29.96 in 10.0 mi East 16.1 mph - N/A   Mostly Cloudy
9:52 AM 64.9 °F 45.0 °F 48% 29.96 in 10.0 mi ESE 15.0 mph 23.0 mph N/A   Mostly Cloudy
10:52 AM 68.0 °F 45.0 °F 43% 29.96 in 10.0 mi SE 19.6 mph 24.2 mph N/A   Mostly Cloudy
11:52 AM 70.0 °F 43.0 °F 38% 29.93 in 10.0 mi ESE 18.4 mph - N/A   Mostly Cloudy
12:52 PM 72.0 °F 41.0 °F 33% 29.88 in 10.0 mi SE 16.1 mph 24.2 mph N/A   Mostly Cloudy
1:25 PM 70.0 °F 41.0 °F 35% 30.07 in 10.0 mi SSE 11.5 mph - N/A Thunderstorm Mostly Cloudy
1:30 PM 71.1 °F 41.0 °F 34% 30.07 in 10.0 mi SSE 13.8 mph - N/A Thunderstorm Mostly Cloudy
1:40 PM 68.0 °F 46.0 °F 45% 30.07 in 10.0 mi South 28.8 mph 36.8 mph 0.00 in Rain , Thunderstorm Light Thunderstorms and Rain
1:52 PM 64.9 °F 48.0 °F 54% 29.88 in 10.0 mi Variable 4.6 mph - 0.03 in Rain , Thunderstorm Light Thunderstorms and Rain
2:04 PM 68.0 °F 50.0 °F 52% 30.04 in 10.0 mi East 5.8 mph - 0.00 in Rain Light Rain
2:52 PM 73.0 °F 42.1 °F 33% 29.82 in 10.0 mi SSE 18.4 mph - 0.00 in Thunderstorm Mostly Cloudy
3:06 PM 71.1 °F 42.1 °F 35% 30.04 in 10.0 mi SE 40.3 mph 61.0 mph 0.00 in Rain , Thunderstorm Light Thunderstorms and Rain
3:35 PM 64.9 °F 51.1 °F 61% 30.05 in 10.0 mi ESE 11.5 mph - 0.17 in   Mostly Cloudy
3:52 PM 63.0 °F 50.0 °F 63% 29.89 in 10.0 mi WNW 11.5 mph 29.9 mph 0.17 in Rain Light Rain
4:04 PM 60.1 °F 51.1 °F 72% 30.03 in 7.0 mi NNW 19.6 mph 26.5 mph 0.00 in Rain Light Rain
4:21 PM 60.1 °F 51.1 °F 72% 30.09 in 10.0 mi West 19.6 mph - 0.01 in Thunderstorm Mostly Cloudy
4:43 PM 60.1 °F 50.0 °F 69% 30.06 in 10.0 mi NNW 16.1 mph - 0.01 in   Mostly Cloudy
4:52 PM 60.1 °F 50.0 °F 69% 29.91 in 10.0 mi North 16.1 mph - 0.01 in Rain Light Rain
5:24 PM 60.1 °F 48.0 °F 64% 30.05 in 10.0 mi NNE 21.9 mph - 0.00 in Thunderstorm Mostly Cloudy
5:52 PM 59.0 °F 48.0 °F 67% 29.91 in 10.0 mi North 20.7 mph - 0.00 in Rain Light Rain
6:52 PM 64.9 °F 46.0 °F 50% 29.86 in 10.0 mi NE 15.0 mph - 0.00 in   Mostly Cloudy
7:00 PM 64.9 °F 45.0 °F 48% 30.04 in 10.0 mi NE 11.5 mph - N/A Thunderstorm Mostly Cloudy
7:15 PM 64.9 °F 45.0 °F 48% 30.06 in 10.0 mi NNE 5.8 mph - N/A   Mostly Cloudy
7:52 PM 63.0 °F 46.0 °F 54% 29.88 in 10.0 mi North 5.8 mph - N/A   Mostly Cloudy
8:52 PM 60.1 °F 48.9 °F 67% 29.91 in 10.0 mi SW 3.5 mph - 0.00 in   Mostly Cloudy
9:52 PM 57.9 °F 50.0 °F 75% 29.93 in 10.0 mi NNW 8.1 mph - N/A   Mostly Cloudy
10:52 PM 54.0 °F 45.0 °F 72% 29.97 in 10.0 mi North 18.4 mph 27.6 mph 0.00 in   Mostly Cloudy
11:52 PM 55.0 °F 45.0 °F 69% 29.92 in 10.0 mi North 15.0 mph - N/A   Mostly Cloudy